Theta_e
327 327 327 326 324 323 321 320 319 319 319 318 316 314 313 312 312 311 310 310 310 309 309 309 308 308 308 307 307 307 307 307 308 307 308 311 312 313 313 312 312 312
323 323 323 322 321 320 319 318 318 317 317 316 314 312 311 310 310 309 309 309 308 307 307 306 306 306 305 305 304 304 305 305 305 306 309 311 312 312 312 312 312 312
320 320 320 319 319 318 316 316 316 315 314 313 311 310 309 309 309 308 307 307 306 305 305 304 304 303 303 303 302 302 303 304 304 307 310 311 311 311 312 312 312 312
319 318 318 318 318 317 316 315 315 313 312 311 309 309 308 307 307 306 305 304 304 303 303 302 302 301 302 301 301 301 302 303 304 307 309 310 310 311 311 311 311 311
317 317 316 316 317 316 315 315 314 312 311 310 308 308 307 306 305 304 304 302 302 302 301 301 300 300 301 300 301 303 303 303 306 308 309 310 310 310 310 310 310 309
316 316 315 315 315 314 314 314 312 310 309 307 307 306 305 304 304 303 302 301 301 300 300 300 299 299 300 299 302 305 305 306 308 309 309 309 309 309 309 308 308 308
315 315 315 314 313 312 312 311 309 308 307 306 305 304 304 303 302 301 300 300 300 299 299 299 298 298 299 298 302 306 307 307 308 308 308 308 308 308 308 307 307 307
315 314 313 312 312 311 309 308 307 306 306 304 303 303 303 302 300 299 299 298 299 298 298 298 297 298 298 297 301 305 307 307 307 307 307 307 306 306 306 305 305 305
314 313 311 310 310 308 307 306 305 304 304 303 302 301 301 300 299 298 298 298 298 297 297 297 297 297 297 297 301 304 305 306 306 306 306 306 305 304 304 303 303 303
313 312 310 308 307 306 306 306 304 303 302 302 301 300 300 299 298 298 297 297 297 296 296 297 296 297 297 297 302 304 304 304 305 306 305 304 304 304 303 303 302 302
312 311 308 306 305 305 305 305 302 301 301 300 300 300 300 298 297 297 297 296 296 296 296 296 296 297 296 297 302 304 304 303 304 304 303 303 303 303 302 302 302 302
311 308 305 304 304 304 304 302 301 300 300 300 299 298 298 297 296 296 296 295 296 296 296 296 296 296 296 297 300 303 304 304 303 302 302 303 303 302 300 301 300 301
309 305 304 303 303 303 302 301 302 302 301 302 302 301 300 298 295 295 296 295 296 296 296 296 296 296 296 297 300 301 303 304 303 302 302 302 302 300 299 299 299 300
306 304 304 303 303 302 301 301 301 302 302 303 304 303 302 300 296 295 295 295 295 295 296 296 296 296 296 298 300 301 303 304 303 301 301 301 300 299 298 299 299 299
305 304 304 303 302 301 300 300 299 299 300 301 302 303 304 301 297 295 295 295 295 295 296 296 296 296 297 298 300 301 302 303 303 301 300 300 299 298 298 298 298 299
304 304 303 302 301 300 299 299 298 299 299 300 301 302 303 301 297 295 295 295 295 295 296 296 296 296 297 298 300 301 302 303 302 301 300 300 299 298 298 298 298 298
303 303 301 300 300 299 299 298 298 299 298 298 299 299 300 301 298 295 294 295 295 295 295 295 296 296 297 298 300 301 302 302 302 301 301 300 299 299 298 298 298 299
303 302 300 300 301 299 298 298 299 298 298 298 298 298 300 302 301 297 295 295 295 295 295 295 296 297 298 298 299 301 302 302 301 301 301 301 300 300 298 297 298 299
305 303 303 303 302 300 299 299 298 297 296 296 297 298 298 301 301 298 295 294 295 295 295 295 296 297 298 298 299 300 302 302 302 302 301 301 301 300 299 297 298 299
306 305 305 304 303 302 302 300 297 296 296 296 296 297 297 299 300 297 294 294 295 295 295 295 296 297 298 299 300 301 302 302 302 302 302 301 301 300 299 298 298 299
305 305 304 304 303 302 301 299 298 298 297 298 298 297 296 297 298 297 295 294 295 295 295 295 295 296 297 299 301 302 302 302 302 302 302 301 301 300 299 298 298 299
304 303 303 303 302 300 298 298 299 299 298 297 297 296 296 296 296 296 295 294 294 295 295 295 295 296 297 298 300 302 302 302 302 301 301 301 301 300 299 299 298 298
304 303 302 302 300 298 296 297 298 299 297 295 295 295 295 294 295 295 295 294 294 294 294 295 295 295 296 297 299 300 301 302 302 302 301 301 300 300 299 299 298 298
303 301 300 299 298 296 295 296 298 300 299 299 299 298 296 294 294 294 294 294 294 294 294 295 295 295 295 296 296 297 298 299 300 301 301 300 300 299 299 298 298 297
302 299 297 296 296 295 295 296 298 300 301 301 302 302 300 297 295 294 294 294 294 294 294 294 294 295 295 295 296 296 296 296 297 298 300 300 300 299 298 297 297 296
298 296 295 295 295 295 295 296 298 300 301 302 303 302 301 299 297 296 295 294 294 294 294 294 294 294 294 295 295 295 295 296 296 297 298 299 300 299 298 296 295 295
Wind_Speed
15 17 17 15 13 11 9 6 5 4 5 4 3 5 7 7 7 7 7 8 8 8 8 9 9 9 10 10 10 10 10 11 11 10 10 12 13 14 15 15 15 16
12 12 12 11 10 10 8 7 6 5 5 6 7 8 9 8 8 8 8 8 8 8 9 9 9 10 10 10 10 11 10 11 12 11 11 11 11 14 17 17 18 18
11 10 9 9 8 8 8 8 7 6 8 9 10 9 9 8 9 8 8 8 8 9 9 9 9 9 10 10 11 11 11 12 12 11 13 13 13 15 16 16 17 17
11 10 10 9 9 8 8 8 9 9 10 10 10 9 9 9 9 9 9 8 8 8 9 9 10 10 10 11 12 12 12 13 14 15 16 16 16 16 14 14 15 15
11 11 11 12 11 10 9 9 10 10 10 10 10 9 9 10 9 9 9 8 8 9 9 10 10 10 10 11 12 13 14 16 18 18 18 17 17 17 16 15 15 16
12 12 12 11 11 11 11 11 11 11 11 11 11 10 10 10 9 9 9 9 9 9 10 10 9 9 9 10 12 14 16 17 18 18 17 16 16 17 17 17 17 18
14 13 12 12 12 12 13 13 12 12 12 12 12 11 10 10 9 9 9 9 9 9 9 9 9 10 10 9 12 14 16 17 16 16 16 15 15 15 16 17 17 17
15 14 13 14 14 14 15 15 14 13 12 12 12 12 11 10 10 10 10 10 10 9 10 10 10 10 10 10 13 14 15 16 16 16 16 15 15 16 16 16 17 17
15 15 16 16 16 16 17 16 16 15 13 12 12 12 12 11 10 10 10 10 11 11 11 11 11 12 10 10 14 15 15 16 16 16 16 17 17 18 18 19 19 19
15 15 17 18 18 18 18 17 16 15 14 13 13 13 13 12 12 12 11 12 13 13 13 12 12 13 11 11 16 17 15 16 17 16 16 17 19 20 20 20 21 21
15 16 18 19 19 18 17 17 17 16 15 14 13 13 13 13 14 14 13 14 15 14 14 14 14 15 12 11 15 17 15 16 17 15 16 18 19 19 19 20 21 20
16 17 20 20 19 18 17 17 17 16 15 14 14 14 14 14 15 15 15 16 16 16 15 15 15 15 13 11 12 15 16 17 16 16 17 18 17 18 19 20 21 21
18 19 21 20 18 18 18 18 17 17 16 15 14 14 15 15 16 16 17 17 17 17 16 16 16 16 14 13 13 16 18 18 16 16 17 16 16 19 22 23 24 24
20 21 20 19 19 18 18 17 17 17 17 16 15 15 14 14 15 16 17 17 17 17 17 17 17 17 16 15 15 16 18 18 16 15 17 16 17 22 25 26 25 25
22 21 20 19 19 18 18 17 16 16 17 17 16 16 15 14 15 16 17 17 18 18 18 18 19 19 18 16 16 15 18 18 15 15 16 18 20 23 26 26 25 25
21 20 20 19 19 19 18 18 17 17 16 16 16 16 15 14 15 16 17 17 18 18 19 19 20 20 18 17 16 16 17 18 15 15 16 18 22 24 26 27 27 25
21 21 20 19 19 18 18 18 17 17 17 17 17 16 16 15 15 15 16 17 18 18 19 20 20 18 17 16 17 17 18 18 16 16 16 17 21 24 26 29 28 27
21 21 20 19 18 18 18 17 17 17 17 17 17 16 16 15 14 14 15 16 17 18 19 20 19 17 16 17 19 19 18 17 16 16 16 17 18 22 26 30 30 28
20 20 20 19 18 18 18 17 17 18 17 17 17 16 16 16 14 14 15 16 17 18 19 19 18 17 16 19 22 20 18 16 15 15 17 17 16 19 25 29 29 28
19 19 19 18 18 18 17 17 18 18 18 17 16 15 15 16 15 14 15 16 16 17 18 19 19 17 16 18 20 19 18 17 15 13 15 16 15 17 23 27 28 27
20 20 19 18 18 18 18 18 18 17 16 16 15 14 14 15 15 15 15 16 16 17 18 19 19 17 15 16 17 17 16 17 15 13 13 15 16 17 21 24 27 26
20 19 19 19 18 19 20 19 18 16 15 16 15 14 13 14 15 15 15 16 16 16 17 19 20 18 16 15 15 15 16 15 13 13 14 14 15 17 19 22 24 24
20 20 20 19 19 20 21 20 18 16 16 16 15 14 13 13 14 14 15 16 16 17 17 18 19 19 17 16 14 13 14 14 11 11 13 14 15 16 18 19 20 21
20 20 21 21 21 22 22 21 19 16 15 14 13 13 13 14 15 15 15 15 16 16 17 17 17 17 16 16 15 13 13 14 12 12 13 15 14 14 15 16 17 19
22 22 23 23 23 23 22 22 20 17 15 14 12 10 10 12 14 15 16 16 16 16 17 16 16 15 15 15 16 15 15 16 15 14 15 15 14 13 14 16 17 19
23 23 23 23 23 23 23 21 20 17 15 13 10 9 10 11 13 14 15 16 16 16 16 16 15 14 13 14 15 15 16 17 16 14 14 14 13 12 14 17 19 20
Wind_Direction
197 203 208 204 193 183 175 165 161 163 160 160 143 100 88 79 72 65 59 51 42 38 33 28 26 21 17 12 7 6 358 347 346 353 2 4 4 3 358 356 360 1
182 187 193 189 180 173 168 158 150 148 138 117 97 90 86 80 74 66 61 57 51 45 39 33 28 22 17 13 9 7 360 352 354 5 14 11 11 13 5 1 5 5
165 164 168 166 162 157 150 143 134 122 109 99 93 92 90 84 78 73 69 64 57 48 41 35 28 22 20 16 12 9 5 0 1 13 22 16 16 19 10 4 7 5
151 152 146 137 133 133 133 130 122 113 108 106 103 100 96 89 84 79 71 65 59 50 41 37 31 26 24 21 19 16 14 13 15 25 28 20 18 19 9 3 4 0
145 139 131 131 134 135 134 128 121 117 113 110 106 104 101 96 89 83 76 67 59 51 45 41 36 32 30 30 30 26 25 29 29 32 29 20 18 17 7 3 6 4
134 132 131 133 134 134 131 126 122 120 116 112 111 108 105 100 93 87 80 71 63 55 51 47 41 38 36 40 43 37 36 38 34 33 30 21 20 17 9 8 9 8
133 133 132 133 133 132 130 126 124 123 120 119 117 112 108 104 100 92 82 76 70 62 57 53 49 48 44 49 55 47 42 40 35 35 30 21 20 18 11 11 10 8
135 134 134 134 131 129 127 125 124 122 122 124 121 115 110 106 102 94 88 83 75 69 65 58 54 55 52 60 64 54 47 41 36 37 30 19 21 18 12 12 10 7
131 132 135 134 129 129 129 128 126 123 123 122 120 117 110 104 100 95 91 86 78 72 68 61 60 60 57 67 67 56 50 45 38 36 31 22 21 18 13 12 9 8
126 130 135 134 132 133 132 130 129 127 124 122 118 114 108 102 99 94 89 85 80 75 70 66 66 61 58 72 70 55 46 47 42 35 29 27 25 20 16 13 10 11
125 130 136 136 136 135 132 131 130 127 126 124 120 115 109 103 99 93 88 82 78 74 71 68 66 62 58 68 72 61 48 44 43 36 32 33 30 22 18 14 13 14
127 133 138 137 136 134 131 130 127 124 124 120 116 113 107 101 97 91 87 81 77 73 70 68 66 63 57 57 69 73 63 47 38 37 39 39 32 24 22 20 19 18
131 135 139 138 136 134 133 132 128 126 123 115 108 104 98 95 91 88 85 81 77 74 70 67 63 60 61 63 69 75 70 53 37 37 43 40 32 28 27 26 26 23
135 138 139 138 137 136 137 137 135 134 129 121 113 105 96 91 88 84 81 78 75 73 69 66 61 58 60 67 71 72 71 61 41 35 43 40 33 31 28 26 26 24
139 140 139 137 136 136 135 134 133 133 130 125 118 109 100 95 89 83 79 75 71 68 65 61 58 56 56 63 71 71 70 65 45 33 41 40 34 32 27 24 24 22
140 139 139 139 138 137 135 133 130 128 127 125 121 115 109 101 92 85 79 74 70 66 63 58 54 55 56 62 71 70 68 66 49 33 38 37 33 32 26 22 24 22
139 139 140 139 138 136 136 135 132 130 128 125 122 118 111 100 89 83 78 74 71 66 62 59 55 57 60 64 71 71 66 62 50 38 38 34 30 29 23 21 24 24
138 139 137 134 134 134 134 132 130 129 128 125 122 117 111 102 91 84 79 75 72 68 63 60 58 60 66 71 75 75 70 63 52 42 38 32 26 22 19 20 24 25
134 134 132 130 131 132 132 131 131 131 129 125 121 117 113 107 97 89 84 78 74 70 66 62 61 65 75 79 77 74 70 64 54 42 37 34 25 15 14 18 22 23
135 134 133 132 132 130 130 132 132 130 125 120 116 114 113 109 102 95 88 83 77 73 69 65 64 69 79 82 80 75 67 60 52 42 35 32 23 10 10 16 19 20
139 137 136 134 133 134 134 132 128 124 121 118 114 113 114 113 108 101 92 86 80 77 74 69 67 71 77 83 85 84 75 62 52 45 38 32 23 12 9 13 15 18
140 140 138 135 137 140 138 133 127 124 125 124 120 118 117 117 114 107 99 93 86 80 77 73 72 72 75 83 88 90 87 75 57 45 41 34 26 16 11 11 11 13
143 144 142 140 142 144 142 135 128 125 124 121 118 115 114 115 112 105 99 95 90 84 80 76 75 74 74 79 83 87 92 89 75 57 46 37 28 18 12 10 9 11
146 149 150 149 148 147 144 137 130 126 124 120 116 112 109 107 105 101 96 92 88 86 81 76 75 76 76 77 77 76 79 82 84 80 63 46 33 20 13 12 11 13
154 157 156 154 152 149 145 139 133 131 128 123 119 116 111 104 100 98 93 87 83 82 79 76 74 74 75 75 74 70 67 68 73 77 70 56 36 19 16 18 17 17
161 159 157 155 152 149 144 138 133 129 123 118 121 129 128 116 104 95 87 82 78 74 72 70 67 67 70 73 72 69 64 63 63 64 67 62 41 16 14 21 23 24